GW3904 Weather Reports


time (UTC)temp
C
wind
direction
speed
KPH
gust
KPH
rain 1hr
cm
rain 24hr
cm
rain mn
cm
humidity
%
barometer
mb
20260906113352 25 240 0.0 0.0 0.00 0.00 0.00 99 1010.9
20260906112848 25 240 0.0 0.0 0.00 0.00 0.00 99 1010.4
20260906112344 25 240 0.0 0.0 0.00 0.00 0.00 99 1010.5
20260906111843 25 240 0.0 0.0 0.00 0.00 0.00 99 1010.2
20260906111338 25 240 0.0 0.0 0.00 0.00 0.00 99 1010.3
20260906110833 25 240 0.0 0.0 0.00 0.00 0.00 99 1010.3
20260906110329 25 241 0.0 0.0 0.00 0.00 0.00 99 1010.4
20260906105827 25 241 0.0 0.0 0.00 0.00 0.00 99 1010.2
20260906105323 25 241 0.0 0.0 0.00 0.00 0.00 99 1010.1
20260906104819 25 241 0.0 0.0 0.00 0.00 0.00 99 1010.2
20260906104318 25 242 0.0 0.0 0.00 0.00 0.00 99 1010.1
20260906103816 25 242 0.0 0.0 0.00 0.00 0.00 99 1010.0
20260906103315 25 249 0.0 0.0 0.00 0.00 0.00 99 1010.2
20260906102811 25 249 0.0 0.0 0.00 0.00 0.00 99 1009.9
20260906102310 25 249 0.0 0.0 0.00 0.00 0.00 99 1009.9
20260906101805 25 249 0.0 0.0 0.00 0.00 0.00 99 1010.1
20260906101300 25 249 0.0 0.0 0.00 0.00 0.00 99 1009.9
20260906100756 25 249 0.0 0.0 0.00 0.00 0.00 99 1010.2
20260906100255 25 249 0.0 0.0 0.00 0.00 0.00 99 1010.0
20260906095750 25 249 0.0 0.0 0.00 0.00 0.00 99 1009.8
20260906095246 25 249 0.0 0.0 0.00 0.00 0.00 99 1009.7
20260906094745 25 249 0.0 0.0 0.00 0.00 0.00 99 1010.0
20260906094240 25 249 0.0 0.0 0.00 0.00 0.00 99 1009.9
20260906093736 25 249 0.0 0.0 0.00 0.00 0.00 99 1009.7
20260906093231 25 249 0.0 0.0 0.00 0.00 0.00 99 1009.6
20260906092727 25 248 0.0 0.0 0.00 0.00 0.00 99 1009.6
20260906092226 25 249 0.0 0.0 0.00 0.00 0.00 99 1009.7
20260906091722 25 249 0.0 0.0 0.00 0.00 0.00 99 1009.6
20260906091218 25 249 0.0 0.0 0.00 0.00 0.00 99 1009.6
20260906090715 25 249 0.0 0.0 0.00 0.00 0.00 99 1009.4
20260906090213 25 249 0.0 0.0 0.00 0.00 0.00 99 1009.6
20260906085713 25 249 0.0 0.0 0.00 0.00 0.00 99 1009.6
20260906085212 25 249 0.0 0.0 0.00 0.00 0.00 99 1009.6
20260906084706 25 252 0.0 0.0 0.00 0.00 0.00 99 1009.7
20260906084201 25 252 0.0 0.0 0.00 0.00 0.00 99 1009.8
20260906083656 25 252 0.0 0.0 0.00 0.00 0.00 99 1009.7
20260906083151 25 252 0.0 0.0 0.00 0.00 0.00 99 1009.9
20260906082646 25 252 0.0 0.0 0.00 0.00 0.00 99 1010.0
20260906082141 25 252 0.0 0.0 0.00 0.00 0.00 99 1009.7
20260906081637 25 253 0.0 0.0 0.00 0.00 0.00 99 1009.7
20260906081132 25 253 0.0 0.0 0.00 0.00 0.00 99 1009.8
20260906080628 25 253 0.0 0.0 0.00 0.00 0.00 99 1009.8
20260906080125 25 253 0.0 0.0 0.00 0.00 0.00 99 1009.6
20260906075624 25 258 0.0 0.0 0.00 0.00 0.00 99 1009.8
20260906075119 25 258 0.0 0.0 0.00 0.00 0.00 99 1009.7
20260906074614 25 257 0.0 0.0 0.00 0.00 0.00 99 1009.6
20260906074113 25 276 0.0 0.0 0.00 0.00 0.00 99 1009.6
20260906073607 25 304 0.0 0.0 0.00 0.00 0.00 99 1009.7
20260906073103 25 303 0.0 0.0 0.00 0.00 0.00 99 1009.7
20260906072559 25 304 0.0 0.0 0.00 0.00 0.00 99 1009.5
20260906072055 25 304 0.0 0.0 0.00 0.00 0.00 99 1009.9
20260906071551 25 304 0.0 0.0 0.00 0.00 0.00 99 1009.7
20260906071051 25 304 0.0 0.0 0.00 0.00 0.00 99 1009.7
20260906070547 25 304 0.0 0.0 0.00 0.00 0.00 99 1009.9
20260906070043 25 304 0.0 0.0 0.00 0.00 0.00 99 1009.8
20260906065542 25 301 0.0 0.0 0.00 0.00 0.00 99 1009.7
20260906065038 25 300 0.0 0.0 0.00 0.00 0.00 99 1009.8
20260906064534 25 300 0.0 0.0 0.00 0.00 0.00 99 1009.7
20260906064029 25 300 0.0 0.0 0.00 0.00 0.00 99 1009.9
20260906063524 25 300 0.0 0.0 0.00 0.00 0.00 99 1010.0
20260906063020 25 300 0.0 0.0 0.00 0.00 0.00 99 1009.9
20260906062515 25 300 0.0 0.0 0.00 0.00 0.00 99 1010.0
20260906062009 25 300 0.0 0.0 0.00 0.00 0.00 99 1010.1
20260906061505 25 300 0.0 0.0 0.00 0.00 0.00 99 1010.0
20260906060959 26 300 0.0 0.0 0.00 0.00 0.00 99 1010.3
20260906060456 26 300 0.0 0.0 0.00 0.00 0.00 99 1010.3
20260906055952 26 299 0.0 0.0 0.00 0.00 0.00 99 1010.4
20260906055442 26 299 0.0 0.0 0.00 0.00 0.00 99 1010.2
20260906054937 26 299 0.0 0.0 0.00 0.00 0.00 99 1010.4
20260906054432 26 299 0.0 0.0 0.00 0.00 0.00 99 1010.5
20260906053928 26 299 0.0 0.0 0.00 0.00 0.00 99 1010.5
20260906053424 26 299 0.0 0.0 0.00 0.00 0.00 99 1010.3
20260906052919 26 299 0.0 0.0 0.00 0.00 0.00 99 1010.5
20260906052415 26 275 0.0 0.0 0.00 0.00 0.00 99 1010.4
20260906051913 26 261 0.0 0.0 0.00 0.00 0.00 99 1010.3
20260906051412 26 213 0.0 0.0 0.00 0.00 0.00 99 1010.3
20260906050908 26 227 0.0 0.0 0.00 0.00 0.00 99 1010.5
20260906050403 26 234 0.0 0.0 0.00 0.00 0.00 99 1010.6
20260906045902 26 235 0.0 0.0 0.00 0.00 0.00 99 1010.6
20260906045401 26 223 0.0 1.6 0.00 0.00 0.00 99 1010.4
20260906044857 26 213 0.0 0.0 0.00 0.00 0.00 99 1010.4
20260906044357 26 243 0.0 0.0 0.00 0.00 0.00 99 1010.4
20260906043853 26 246 0.0 0.0 0.00 0.00 0.00 99 1010.7
20260906043349 26 249 0.0 0.0 0.00 0.00 0.00 99 1010.7
20260906042844 26 262 0.0 0.0 0.00 0.00 0.00 99 1010.5
20260906042343 26 253 0.0 0.0 0.00 0.00 0.00 99 1010.7
20260906041838 26 247 1.6 1.6 0.00 0.00 0.00 99 1010.5
20260906041334 26 229 1.6 1.6 0.00 0.00 0.00 99 1010.4
20260906040834 26 235 1.6 1.6 0.00 0.00 0.00 98 1010.5
20260906040329 27 195 4.8 4.8 0.00 0.00 0.00 98 1010.4
20260906035824 27 235 3.2 3.2 0.00 0.00 0.00 98 1010.6
20260906035319 27 254 1.6 1.6 0.00 0.00 0.00 98 1010.9
20260906034815 27 236 3.2 4.8 0.00 0.00 0.00 98 1011.1
20260906034314 27 196 3.2 3.2 0.00 0.00 0.00 98 1010.9
20260906033810 27 212 3.2 3.2 0.00 0.00 0.00 98 1011.1
20260906033309 27 205 3.2 4.8 0.00 0.00 0.00 98 1011.3
20260906032806 27 197 3.2 3.2 0.00 0.00 0.00 98 1011.1
20260906032301 27 180 1.6 3.2 0.00 0.00 0.00 98 1011.1
20260906031757 27 199 4.8 4.8 0.00 0.00 0.00 98 1010.8
20260906031253 27 204 4.8 4.8 0.00 0.00 0.00 98 1011.0
20260906030752 27 179 8.0 9.7 0.00 0.00 0.00 98 1011.2
20260906030247 27 203 4.8 4.8 0.00 0.00 0.00 98 1011.3
20260906025747 27 203 4.8 4.8 0.00 0.00 0.00 98 1011.4
20260906025241 27 227 3.2 4.8 0.00 0.00 0.00 98 1011.1
20260906024740 27 168 4.8 4.8 0.00 0.00 0.00 98 1011.0
20260906024239 27 193 8.0 9.7 0.00 0.00 0.00 98 1011.1
20260906023735 27 263 8.0 12.9 0.00 0.00 0.00 98 1011.1
20260906023230 27 186 6.4 8.0 0.00 0.00 0.00 98 1011.2
20260906022726 27 200 4.8 4.8 0.00 0.00 0.00 99 1011.1
20260906022221 27 192 4.8 4.8 0.00 0.00 0.00 99 1011.0
20260906021717 27 196 4.8 4.8 0.00 0.00 0.00 99 1011.1
20260906021216 27 190 4.8 4.8 0.00 0.00 0.00 98 1011.1
20260906020711 27 186 4.8 4.8 0.00 0.00 0.00 98 1011.2
20260906020206 27 161 4.8 8.0 0.00 0.00 0.00 98 1011.1
20260906015706 27 178 4.8 4.8 0.00 0.00 0.00 98 1011.1
20260906015159 27 193 4.8 8.0 0.00 0.00 0.00 98 1011.1
20260906014658 27 184 4.8 8.0 0.00 0.00 0.00 98 1011.1
20260906014154 27 208 3.2 4.8 0.00 0.00 0.00 98 1011.0
20260906013650 27 190 4.8 8.0 0.00 0.00 0.00 98 1011.0
20260906013145 27 205 3.2 4.8 0.00 0.00 0.00 97 1010.9
20260906012640 27 221 4.8 8.0 0.00 0.00 0.00 97 1010.9
20260906012139 28 191 3.2 4.8 0.00 0.00 0.00 97 1010.9
20260906011635 28 219 3.2 3.2 0.00 0.00 0.00 97 1010.9
20260906011130 28 225 4.8 4.8 0.00 0.00 0.00 97 1010.7
20260906010625 28 170 3.2 3.2 0.00 0.00 0.00 97 1010.7
20260906010122 28 189 4.8 4.8 0.00 0.00 0.00 97 1010.7
20260906005621 28 167 3.2 3.2 0.00 0.00 0.00 96 1010.5
20260906005120 28 145 8.0 9.7 0.00 0.00 0.00 96 1010.5
20260906004619 28 168 4.8 4.8 0.00 0.00 0.00 96 1010.3
20260906004114 28 228 6.4 8.0 0.00 0.00 0.00 96 1010.4
20260906003610 28 164 4.8 4.8 0.00 0.00 0.00 96 1010.5
20260906003106 28 189 3.2 3.2 0.00 0.00 0.00 95 1010.7
20260906002600 28 196 6.4 8.0 0.00 0.00 0.00 95 1010.6
20260906002055 28 183 6.4 8.0 0.00 0.00 0.00 95 1010.7
20260906001545 28 195 4.8 4.8 0.00 0.00 0.00 95 1010.7
20260906001044 28 187 4.8 4.8 0.00 0.00 0.00 94 1010.7
20260906000540 28 190 6.4 8.0 0.00 0.00 0.00 94 1010.5
20260906000035 28 234 4.8 4.8 0.00 0.00 0.00 94 1010.4
20260905235529 28 199 4.8 4.8 0.00 0.00 0.00 93 1010.4
20260905235024 28 202 4.8 4.8 0.00 0.00 0.00 93 1010.5
20260905234520 28 183 1.6 1.6 0.00 0.00 0.00 92 1010.4
20260905234014 29 160 6.4 8.0 0.00 0.00 0.00 92 1010.4
20260905233509 29 193 4.8 4.8 0.00 0.00 0.00 91 1010.5
20260905233009 29 203 3.2 3.2 0.00 0.00 0.00 90 1010.4
20260905232504 29 173 4.8 4.8 0.00 0.00 0.00 89 1010.6
20260905232000 30 147 6.4 8.0 0.00 0.00 0.00 89 1010.1
20260905231455 30 211 4.8 8.0 0.00 0.00 0.00 87 1010.4
20260905230947 30 196 4.8 8.0 0.00 0.00 0.00 86 1010.1
20260905230444 30 246 0.0 0.0 0.00 0.00 0.00 84 1009.9
20260905225937 30 246 0.0 0.0 0.00 0.00 0.00 83 1010.4
20260905225432 30 246 0.0 0.0 0.00 0.00 0.00 82 1010.2
20260905224927 30 246 0.0 0.0 0.00 0.00 0.00 81 1010.1
20260905224423 30 246 0.0 0.0 0.00 0.00 0.00 80 1010.1
20260905223916 30 246 0.0 0.0 0.00 0.00 0.00 80 1010.0
20260905223414 30 281 0.0 0.0 0.00 0.00 0.00 79 1010.1
20260905222909 31 282 0.0 0.0 0.00 0.00 0.00 79 1010.0
20260905222408 31 254 0.0 0.0 0.00 0.00 0.00 77 1010.2
20260905221904 31 234 0.0 0.0 0.00 0.00 0.00 78 1010.1
20260905221400 31 234 0.0 0.0 0.00 0.00 0.00 77 1010.3
20260905220855 31 252 0.0 0.0 0.00 0.00 0.00 76 1010.7
20260905220352 31 134 1.6 1.6 0.00 0.00 0.00 74 1010.6
20260905215851 31 253 0.0 1.6 0.00 0.00 0.00 74 1010.7
20260905215347 31 175 4.8 4.8 0.00 0.00 0.00 74 1010.8
20260905214843 31 259 0.0 0.0 0.00 0.00 0.00 76 1010.7
20260905214338 31 304 0.0 0.0 0.00 0.00 0.00 75 1010.5
20260905213833 31 311 1.6 1.6 0.00 0.00 0.00 73 1010.7
20260905213329 31 260 0.0 0.0 0.00 0.00 0.00 73 1010.5
20260905212824 31 210 0.0 1.6 0.00 0.00 0.00 73 1010.4
20260905212324 31 149 1.6 3.2 0.00 0.00 0.00 74 1010.4
20260905211819 31 274 0.0 0.0 0.00 0.00 0.00 74 1010.4
20260905211314 31 245 0.0 0.0 0.00 0.00 0.00 74 1010.5
20260905210811 31 318 0.0 1.6 0.00 0.00 0.00 74 1010.3
20260905210310 31 324 1.6 1.6 0.00 0.00 0.00 73 1010.2
20260905205809 31 278 0.0 1.6 0.00 0.00 0.00 72 1009.9
20260905205306 31 153 4.8 4.8 0.00 0.00 0.00 73 1010.3
20260905204803 31 345 0.0 0.0 0.00 0.00 0.00 74 1010.1
20260905204300 31 178 3.2 4.8 0.00 0.00 0.00 74 1009.9
20260905203758 31 282 0.0 0.0 0.00 0.00 0.00 73 1009.8
20260905203253 32 237 0.0 0.0 0.00 0.00 0.00 72 1009.8
20260905202749 32 260 3.2 4.8 0.00 0.00 0.00 73 1009.9
20260905202244 31 314 0.0 1.6 0.00 0.00 0.00 74 1009.9
20260905201740 32 338 1.6 1.6 0.00 0.00 0.00 74 1010.1
20260905201234 32 236 0.0 0.0 0.00 0.00 0.00 73 1010.1
20260905200729 32 151 4.8 4.8 0.00 0.00 0.00 73 1010.0
20260905200225 32 236 3.2 4.8 0.00 0.00 0.00 73 1010.0
20260905195723 31 159 3.2 4.8 0.00 0.00 0.00 75 1010.4
20260905195218 31 44 0.0 0.0 0.00 0.00 0.00 75 1010.5
20260905194713 31 104 0.0 1.6 0.00 0.00 0.00 75 1010.2
20260905194208 31 348 4.8 8.0 0.00 0.00 0.00 75 1010.3
20260905193702 31 334 4.8 8.0 0.00 0.00 0.00 75 1010.6
20260905193157 31 45 0.0 0.0 0.00 0.00 0.00 75 1010.6
20260905192653 31 354 3.2 3.2 0.00 0.00 0.00 74 1010.9
20260905192149 31 276 1.6 3.2 0.00 0.00 0.00 74 1011.0
20260905191648 31 0 1.6 1.6 0.00 0.00 0.00 75 1010.9
20260905191146 31 298 1.6 3.2 0.00 0.00 0.00 76 1011.0
20260905190644 31 356 4.8 4.8 0.00 0.00 0.00 76 1011.1
20260905190138 31 297 3.2 3.2 0.00 0.00 0.00 76 1011.1
20260905185637 31 336 0.0 1.6 0.00 0.00 0.00 77 1011.1
20260905185132 31 208 0.0 0.0 0.00 0.00 0.00 77 1011.1
20260905184626 31 327 0.0 1.6 0.00 0.00 0.00 78 1011.4
20260905184125 31 51 0.0 0.0 0.00 0.00 0.00 77 1011.4
20260905183624 31 276 0.0 1.6 0.00 0.00 0.00 78 1011.5
20260905183120 31 223 1.6 1.6 0.00 0.00 0.00 79 1011.4
20260905182614 30 334 0.0 0.0 0.00 0.00 0.00 80 1011.6
20260905182113 31 344 0.0 0.0 0.00 0.00 0.00 78 1011.8
20260905181608 31 70 1.6 3.2 0.00 0.00 0.00 79 1011.8
20260905181107 31 143 3.2 3.2 0.00 0.00 0.00 79 1011.9
20260905180602 31 314 1.6 3.2 0.00 0.00 0.00 79 1011.9
20260905180058 30 336 0.0 0.0 0.00 0.00 0.00 80 1012.3
20260905175556 31 350 3.2 4.8 0.00 0.00 0.00 80 1012.2
20260905175052 30 319 0.0 0.0 0.00 0.00 0.00 80 1012.3
20260905174548 31 2 0.0 1.6 0.00 0.00 0.00 81 1012.4
20260905174043 31 259 1.6 1.6 0.00 0.00 0.00 80 1012.2
20260905173540 30 75 1.6 1.6 0.00 0.00 0.00 82 1012.4
20260905173035 30 32 1.6 1.6 0.00 0.00 0.00 82 1012.4
20260905172533 30 282 0.0 0.0 0.00 0.00 0.00 82 1012.4
20260905172029 30 134 0.0 1.6 0.00 0.00 0.00 83 1012.7
20260905171525 30 75 1.6 3.2 0.00 0.00 0.00 83 1012.8
20260905171021 30 326 1.6 3.2 0.00 0.00 0.00 83 1012.8
20260905170518 30 281 0.0 0.0 0.00 0.00 0.00 85 1012.7
20260905170012 29 23 0.0 1.6 0.00 0.00 0.00 86 1012.9
20260905165507 28 257 0.0 0.0 0.00 0.00 0.00 86 1013.0
20260905164956 28 245 0.0 1.6 0.00 0.00 0.00 86 1013.3
20260905164455 28 347 1.6 3.2 0.00 0.00 0.00 87 1013.3
20260905163950 28 137 4.8 4.8 0.00 0.00 0.00 86 1013.3
20260905163447 29 31 1.6 3.2 0.00 0.00 0.00 87 1013.4
20260905162943 28 134 4.8 8.0 0.00 0.00 0.00 89 1013.8
20260905162438 28 289 1.6 1.6 0.00 0.00 0.00 89 1013.6
20260905161933 28 123 3.2 4.8 0.00 0.00 0.00 89 1013.6
20260905161432 28 284 1.6 3.2 0.00 0.00 0.00 90 1013.5
20260905160930 28 16 1.6 1.6 0.00 0.00 0.00 91 1013.8
20260905160424 27 270 1.6 3.2 0.00 0.00 0.00 92 1013.8
20260905155918 27 337 0.0 1.6 0.00 0.00 0.00 93 1013.7
20260905155413 27 328 1.6 3.2 0.00 0.00 0.00 93 1013.9
20260905154911 27 315 1.6 1.6 0.00 0.00 0.00 93 1013.9
20260905154407 27 276 0.0 0.0 0.00 0.00 0.00 93 1013.8
20260905153903 27 139 0.0 1.6 0.00 0.00 0.00 93 1013.9
20260905153359 27 359 0.0 1.6 0.00 0.00 0.00 94 1014.1
20260905152858 27 311 0.0 0.0 0.00 0.00 0.00 94 1014.3
20260905152357 27 273 1.6 1.6 0.00 0.00 0.00 94 1014.1
20260905151853 27 268 1.6 3.2 0.00 0.00 0.00 94 1014.0
20260905151349 27 196 1.6 1.6 0.00 0.00 0.00 94 1014.1
20260905150849 27 144 0.0 0.0 0.00 0.00 0.00 94 1014.2
20260905150343 26 132 3.2 3.2 0.00 0.00 0.00 94 1014.1
20260905145841 27 271 0.0 0.0 0.00 0.00 0.00 94 1014.3
20260905145340 27 179 0.0 0.0 0.00 0.00 0.00 95 1014.3
20260905144839 26 119 1.6 1.6 0.00 0.00 0.00 95 1014.3
20260905144335 26 13 1.6 3.2 0.00 0.00 0.00 95 1014.2
20260905143833 26 105 0.0 1.6 0.00 0.00 0.00 95 1014.2
20260905143328 26 326 1.6 3.2 0.00 0.00 0.00 95 1014.2
20260905142828 26 284 1.6 1.6 0.00 0.00 0.00 95 1014.2
20260905142321 26 49 1.6 1.6 0.00 0.00 0.00 95 1014.0
20260905141817 26 94 1.6 3.2 0.00 0.00 0.00 96 1014.1
20260905141313 26 149 3.2 3.2 0.00 0.00 0.00 96 1014.1
20260905140808 26 327 3.2 3.2 0.00 0.00 0.00 98 1014.0
20260905140302 26 318 0.0 1.6 0.00 0.00 0.00 99 1013.8
20260905135801 26 297 1.6 1.6 0.00 0.00 0.00 99 1014.1
20260905135258 26 289 0.0 0.0 0.00 0.00 0.00 99 1014.0
20260905134758 25 309 0.0 1.6 0.00 0.00 0.00 99 1014.0
20260905134256 25 343 1.6 3.2 0.00 0.00 0.00 99 1014.3
20260905133751 25 131 1.6 3.2 0.00 0.00 0.00 99 1014.3
20260905133247 25 280 0.0 0.0 0.00 0.00 0.00 99 1014.2
20260905132746 25 316 0.0 0.0 0.00 0.00 0.00 99 1014.1
20260905132242 25 49 0.0 0.0 0.00 0.00 0.00 99 1014.2
20260905131736 25 339 0.0 0.0 0.00 0.00 0.00 99 1014.2
20260905131232 25 265 0.0 0.0 0.00 0.00 0.00 99 1014.2
20260905130726 25 92 0.0 0.0 0.00 0.00 0.00 99 1014.3
20260905130225 25 90 0.0 0.0 0.00 0.00 0.00 99 1013.9
20260905125721 25 27 0.0 0.0 0.00 0.00 0.00 99 1014.1
20260905125215 24 128 1.6 3.2 0.00 0.00 0.00 99 1014.0
20260905124712 24 274 0.0 1.6 0.00 0.00 0.00 99 1013.8
20260905124208 24 298 0.0 0.0 0.00 0.00 0.00 99 1013.9
20260905123702 24 193 0.0 0.0 0.00 0.00 0.00 99 1014.1
20260905123200 24 222 0.0 0.0 0.00 0.00 0.00 99 1014.0
20260905122659 24 265 0.0 0.0 0.00 0.00 0.00 99 1014.0
20260905122154 24 295 0.0 0.0 0.00 0.00 0.00 99 1013.9
20260905121648 23 211 0.0 0.0 0.00 0.00 0.00 99 1013.8
20260905121144 24 305 0.0 0.0 0.00 0.00 0.00 99 1013.7
20260905120643 23 158 0.0 0.0 0.00 0.00 0.00 99 1013.6
20260905120138 24 289 0.0 0.0 0.00 0.00 0.00 99 1013.4
20260905115632 24 240 0.0 0.0 0.00 0.00 0.00 99 1013.3
20260905115127 24 256 0.0 0.0 0.00 0.00 0.00 99 1013.2
20260905114626 23 258 0.0 0.0 0.00 0.00 0.00 99 1013.5
20260905114125 23 267 0.0 0.0 0.00 0.00 0.00 99 1013.4